| time (UTC) | temp F | wind direction | speed MPH | gust MPH | rain 1hr in | rain 24hr in | rain mn in | humidity % | barometer mb |
| 20260505035333 | 58 | 51 | 3.0 | 5.0 | 0.00 | 0.01 | 0.01 | 75 | 1030.8 |
| 20260505034832 | 58 | 46 | 2.0 | 5.0 | 0.00 | 0.01 | 0.01 | 74 | 1030.9 |
| 20260505034332 | 58 | 54 | 3.0 | 4.0 | 0.00 | 0.01 | 0.01 | 74 | 1030.9 |
| 20260505033334 | 58 | 64 | 2.0 | 3.0 | 0.00 | 0.01 | 0.01 | 74 | 1030.8 |
| 20260505032330 | 59 | 96 | 2.0 | 3.0 | 0.00 | 0.01 | 0.01 | 74 | 1030.8 |
| 20260505031831 | 59 | 65 | 2.0 | 3.0 | 0.00 | 0.01 | 0.01 | 73 | 1030.9 |
| 20260505031329 | 58 | 78 | 2.0 | 5.0 | 0.00 | 0.01 | 0.01 | 74 | 1030.9 |
| 20260505030826 | 58 | 78 | 2.0 | 5.0 | 0.00 | 0.01 | 0.01 | 74 | 1030.9 |
| 20260505030326 | 58 | 98 | 2.0 | 3.0 | 0.00 | 0.01 | 0.01 | 74 | 1030.9 |
| 20260505025828 | 58 | 84 | 2.0 | 3.0 | 0.00 | 0.01 | 0.01 | 74 | 1031.0 |
| 20260505025334 | 58 | 97 | 2.0 | 4.0 | 0.00 | 0.01 | 0.01 | 74 | 1030.9 |
| 20260505024828 | 59 | 89 | 2.0 | 4.0 | 0.00 | 0.01 | 0.01 | 73 | 1030.9 |
| 20260505023823 | 58 | 57 | 2.0 | 5.0 | 0.00 | 0.01 | 0.01 | 75 | 1031.0 |
| 20260505023323 | 58 | 76 | 2.0 | 4.0 | 0.00 | 0.01 | 0.01 | 73 | 1031.2 |
| 20260505022820 | 58 | 78 | 2.0 | 6.0 | 0.00 | 0.01 | 0.01 | 73 | 1031.0 |
| 20260505022316 | 59 | 64 | 2.0 | 6.0 | 0.00 | 0.01 | 0.01 | 72 | 1031.0 |
| 20260505021815 | 59 | 55 | 2.0 | 5.0 | 0.00 | 0.01 | 0.01 | 72 | 1031.0 |
| 20260505021320 | 59 | 73 | 2.0 | 6.0 | 0.00 | 0.01 | 0.01 | 73 | 1031.1 |
| 20260505020816 | 59 | 44 | 2.0 | 6.0 | 0.00 | 0.01 | 0.01 | 74 | 1031.0 |
| 20260505020314 | 59 | 45 | 2.0 | 5.0 | 0.00 | 0.01 | 0.01 | 71 | 1031.0 |
| 20260505014813 | 59 | 65 | 3.0 | 6.0 | 0.00 | 0.01 | 0.01 | 73 | 1031.2 |
| 20260505014315 | 59 | 52 | 3.0 | 6.0 | 0.00 | 0.01 | 0.01 | 73 | 1031.3 |
| 20260505013813 | 59 | 85 | 2.0 | 5.0 | 0.00 | 0.01 | 0.01 | 73 | 1031.2 |
| 20260505013313 | 59 | 83 | 3.0 | 6.0 | 0.00 | 0.01 | 0.01 | 73 | 1031.5 |
| 20260505012813 | 59 | 49 | 3.0 | 6.0 | 0.00 | 0.01 | 0.01 | 73 | 1031.5 |
| 20260505012316 | 59 | 75 | 4.0 | 6.0 | 0.00 | 0.01 | 0.01 | 73 | 1031.6 |
| 20260505011813 | 59 | 40 | 3.0 | 5.0 | 0.00 | 0.01 | 0.01 | 73 | 1031.6 |
| 20260505011316 | 59 | 59 | 3.0 | 6.0 | 0.00 | 0.01 | 0.01 | 73 | 1031.7 |
| 20260505010816 | 59 | 65 | 3.0 | 6.0 | 0.00 | 0.01 | 0.01 | 73 | 1031.7 |
| 20260505005813 | 58 | 80 | 3.0 | 6.0 | 0.00 | 0.01 | 0.01 | 73 | 1031.9 |
| 20260505005314 | 58 | 78 | 3.0 | 6.0 | 0.00 | 0.01 | 0.01 | 74 | 1031.8 |
| 20260505004814 | 58 | 66 | 3.0 | 6.0 | 0.00 | 0.01 | 0.01 | 72 | 1032.0 |
| 20260505004313 | 59 | 51 | 3.0 | 7.0 | 0.00 | 0.01 | 0.01 | 72 | 1032.2 |
| 20260505003314 | 58 | 49 | 3.0 | 6.0 | 0.00 | 0.01 | 0.01 | 73 | 1032.3 |
| 20260505002813 | 59 | 93 | 3.0 | 6.0 | 0.00 | 0.01 | 0.01 | 74 | 1032.3 |
| 20260505002315 | 58 | 39 | 3.0 | 5.0 | 0.00 | 0.01 | 0.01 | 74 | 1032.4 |
| 20260505001813 | 58 | 38 | 3.0 | 7.0 | 0.00 | 0.01 | 0.01 | 74 | 1032.6 |
| 20260505001314 | 57 | 53 | 3.0 | 7.0 | 0.00 | 0.01 | 0.01 | 75 | 1032.6 |
| 20260505000814 | 57 | 74 | 3.0 | 6.0 | 0.00 | 0.01 | 0.01 | 74 | 1032.6 |
| 20260505000313 | 57 | 55 | 3.0 | 4.0 | 0.00 | 0.01 | 0.01 | 75 | 1032.7 |
| 20260504235814 | 57 | 91 | 3.0 | 4.0 | 0.00 | 0.01 | 0.01 | 76 | 1032.7 |
| 20260504234814 | 57 | 54 | 4.0 | 7.0 | 0.00 | 0.01 | 0.01 | 77 | 1032.9 |
| 20260504234313 | 57 | 49 | 4.0 | 7.0 | 0.00 | 0.01 | 0.01 | 76 | 1033.0 |
| 20260504233814 | 57 | 64 | 3.0 | 7.0 | 0.00 | 0.01 | 0.01 | 76 | 1033.1 |
| 20260504233314 | 57 | 32 | 4.0 | 7.0 | 0.00 | 0.01 | 0.01 | 78 | 1033.2 |
| 20260504232810 | 56 | 63 | 3.0 | 7.0 | 0.00 | 0.01 | 0.01 | 76 | 1033.3 |
| 20260504232311 | 57 | 49 | 3.0 | 8.0 | 0.00 | 0.01 | 0.01 | 76 | 1033.3 |
| 20260504231813 | 57 | 61 | 3.0 | 8.0 | 0.00 | 0.01 | 0.01 | 75 | 1033.3 |
| 20260504231308 | 57 | 66 | 3.0 | 7.0 | 0.00 | 0.01 | 0.01 | 76 | 1033.4 |
| 20260504230809 | 57 | 51 | 3.0 | 6.0 | 0.00 | 0.01 | 0.01 | 75 | 1033.4 |
| 20260504230310 | 57 | 79 | 2.0 | 6.0 | 0.00 | 0.01 | 0.01 | 75 | 1033.4 |
| 20260504225810 | 56 | 57 | 2.0 | 6.0 | 0.00 | 0.01 | 0.01 | 76 | 1033.4 |
| 20260504225306 | 56 | 84 | 2.0 | 5.0 | 0.00 | 0.01 | 0.01 | 76 | 1033.4 |
| 20260504224804 | 56 | 89 | 3.0 | 5.0 | 0.00 | 0.01 | 0.01 | 76 | 1033.4 |
| 20260504224304 | 56 | 112 | 3.0 | 5.0 | 0.00 | 0.01 | 0.01 | 76 | 1033.6 |
| 20260504223802 | 56 | 74 | 2.0 | 4.0 | 0.00 | 0.01 | 0.01 | 75 | 1033.5 |
| 20260504223257 | 56 | 280 | 1.0 | 3.0 | 0.00 | 0.01 | 0.01 | 73 | 1033.5 |
| 20260504222752 | 56 | 287 | 2.0 | 3.0 | 0.00 | 0.01 | 0.01 | 74 | 1033.7 |
| 20260504222251 | 56 | 323 | 1.0 | 3.0 | 0.00 | 0.01 | 0.01 | 75 | 1033.6 |
| 20260504221750 | 55 | 321 | 1.0 | 3.0 | 0.00 | 0.01 | 0.01 | 76 | 1033.7 |
| 20260504221249 | 55 | 266 | 2.0 | 4.0 | 0.00 | 0.01 | 0.01 | 76 | 1033.7 |
| 20260504220749 | 55 | 315 | 1.0 | 4.0 | 0.00 | 0.01 | 0.01 | 77 | 1033.7 |
| 20260504220249 | 54 | 315 | 1.0 | 4.0 | 0.00 | 0.01 | 0.01 | 79 | 1033.7 |
| 20260504215749 | 53 | 280 | 2.0 | 4.0 | 0.00 | 0.01 | 0.01 | 82 | 1033.7 |
| 20260504215248 | 53 | 280 | 2.0 | 4.0 | 0.00 | 0.01 | 0.01 | 81 | 1033.8 |
| 20260504214746 | 53 | 244 | 2.0 | 4.0 | 0.00 | 0.01 | 0.01 | 83 | 1033.9 |
| 20260504214243 | 52 | 244 | 2.0 | 4.0 | 0.00 | 0.01 | 0.01 | 84 | 1033.9 |
| 20260504213743 | 52 | 244 | 2.0 | 4.0 | 0.00 | 0.01 | 0.01 | 85 | 1033.8 |
| 20260504213245 | 51 | 250 | 2.0 | 4.0 | 0.00 | 0.01 | 0.01 | 87 | 1034.0 |
| 20260504212743 | 51 | 252 | 2.0 | 3.0 | 0.00 | 0.01 | 0.01 | 88 | 1034.0 |
| 20260504211741 | 50 | 247 | 2.0 | 6.0 | 0.01 | 0.01 | 0.01 | 90 | 1034.0 |
| 20260504211237 | 50 | 244 | 2.0 | 5.0 | 0.01 | 0.01 | 0.01 | 91 | 1033.9 |
| 20260504210737 | 49 | 266 | 2.0 | 4.0 | 0.01 | 0.01 | 0.01 | 92 | 1034.0 |
| 20260504210237 | 49 | 266 | 2.0 | 4.0 | 0.01 | 0.01 | 0.01 | 92 | 1034.0 |
| 20260504205735 | 49 | 258 | 2.0 | 4.0 | 0.01 | 0.01 | 0.01 | 93 | 1034.1 |
| 20260504205236 | 48 | 253 | 2.0 | 4.0 | 0.01 | 0.01 | 0.01 | 93 | 1034.0 |
| 20260504204736 | 48 | 253 | 2.0 | 4.0 | 0.01 | 0.01 | 0.01 | 94 | 1034.0 |
| 20260504204235 | 47 | 253 | 2.0 | 4.0 | 0.01 | 0.01 | 0.01 | 94 | 1033.9 |
| 20260504203735 | 47 | 254 | 1.0 | 3.0 | 0.01 | 0.01 | 0.01 | 94 | 1034.0 |
| 20260504203234 | 46 | 254 | 1.0 | 3.0 | 0.01 | 0.01 | 0.01 | 94 | 1034.0 |
| 20260504202737 | 46 | 253 | 1.0 | 3.0 | 0.01 | 0.01 | 0.01 | 94 | 1034.0 |
| 20260504201732 | 45 | 253 | 1.0 | 3.0 | 0.00 | 0.00 | 0.00 | 94 | 1033.8 |
| 20260504201232 | 44 | 253 | 0.0 | 2.0 | 0.00 | 0.00 | 0.00 | 94 | 1033.8 |
| 20260504200733 | 44 | 253 | 0.0 | 0.0 | 0.00 | 0.00 | 0.00 | 94 | 1033.9 |
| 20260504195731 | 43 | 254 | 0.0 | 0.0 | 0.00 | 0.00 | 0.00 | 94 | 1033.8 |
| 20260504195232 | 42 | 253 | 0.0 | 0.0 | 0.00 | 0.00 | 0.00 | 94 | 1033.8 |
| 20260504194730 | 42 | 253 | 0.0 | 0.0 | 0.00 | 0.00 | 0.00 | 94 | 1033.8 |
| 20260504194231 | 41 | 254 | 0.0 | 0.0 | 0.00 | 0.00 | 0.00 | 94 | 1033.7 |
| 20260504193231 | 41 | 253 | 0.0 | 0.0 | 0.00 | 0.00 | 0.00 | 94 | 1033.8 |
| 20260504192731 | 40 | 253 | 0.0 | 0.0 | 0.00 | 0.00 | 0.00 | 94 | 1033.8 |
| 20260504192229 | 40 | 253 | 0.0 | 0.0 | 0.00 | 0.00 | 0.00 | 93 | 1033.4 |
| 20260504191727 | 40 | 253 | 0.0 | 0.0 | 0.00 | 0.00 | 0.00 | 93 | 1033.6 |
| 20260504191228 | 40 | 253 | 0.0 | 0.0 | 0.00 | 0.00 | 0.00 | 93 | 1033.4 |
| 20260504190725 | 40 | 253 | 0.0 | 0.0 | 0.00 | 0.00 | 0.00 | 93 | 1033.4 |
| 20260504190227 | 40 | 252 | 0.0 | 0.0 | 0.00 | 0.00 | 0.00 | 93 | 1033.4 |
| 20260504185724 | 40 | 252 | 0.0 | 0.0 | 0.00 | 0.00 | 0.00 | 93 | 1033.3 |
| 20260504185226 | 40 | 252 | 0.0 | 0.0 | 0.00 | 0.00 | 0.00 | 93 | 1033.4 |
| 20260504184725 | 40 | 252 | 0.0 | 0.0 | 0.00 | 0.00 | 0.00 | 93 | 1033.2 |
| 20260504184224 | 40 | 253 | 0.0 | 0.0 | 0.00 | 0.00 | 0.00 | 93 | 1033.3 |
| 20260504183723 | 40 | 253 | 0.0 | 0.0 | 0.00 | 0.00 | 0.00 | 93 | 1033.3 |
| 20260504183221 | 40 | 253 | 0.0 | 0.0 | 0.00 | 0.00 | 0.00 | 93 | 1033.3 |
| 20260504182722 | 41 | 252 | 0.0 | 0.0 | 0.00 | 0.00 | 0.00 | 93 | 1033.2 |
| 20260504182218 | 41 | 252 | 0.0 | 0.0 | 0.00 | 0.00 | 0.00 | 93 | 1033.2 |
| 20260504181214 | 41 | 252 | 0.0 | 0.0 | 0.00 | 0.00 | 0.00 | 93 | 1033.3 |
| 20260504180715 | 41 | 252 | 0.0 | 0.0 | 0.00 | 0.00 | 0.00 | 93 | 1033.2 |
| 20260504180215 | 41 | 252 | 0.0 | 0.0 | 0.00 | 0.00 | 0.00 | 93 | 1033.2 |
| 20260504175717 | 41 | 252 | 0.0 | 0.0 | 0.00 | 0.00 | 0.00 | 93 | 1033.2 |
| 20260504175215 | 41 | 252 | 0.0 | 0.0 | 0.00 | 0.00 | 0.00 | 94 | 1033.3 |
| 20260504174717 | 41 | 253 | 0.0 | 0.0 | 0.00 | 0.00 | 0.00 | 93 | 1033.3 |
| 20260504174214 | 41 | 253 | 0.0 | 0.0 | 0.00 | 0.00 | 0.00 | 93 | 1033.2 |
| 20260504173716 | 41 | 253 | 0.0 | 0.0 | 0.00 | 0.00 | 0.00 | 93 | 1033.2 |
| 20260504172215 | 41 | 252 | 0.0 | 0.0 | 0.00 | 0.00 | 0.00 | 93 | 1033.2 |
| 20260504171717 | 41 | 253 | 0.0 | 0.0 | 0.00 | 0.00 | 0.00 | 93 | 1033.3 |
| 20260504170714 | 41 | 254 | 0.0 | 0.0 | 0.00 | 0.00 | 0.00 | 93 | 1033.2 |
| 20260504170216 | 41 | 252 | 0.0 | 0.0 | 0.00 | 0.00 | 0.00 | 93 | 1033.2 |
| 20260504150644 | 43 | 253 | 0.0 | 0.0 | 0.00 | 0.00 | 0.00 | 93 | 1033.7 |
| 20260504150144 | 43 | 253 | 0.0 | 0.0 | 0.00 | 0.00 | 0.00 | 92 | 1033.7 |
| 20260504141137 | 44 | 254 | 1.0 | 3.0 | 0.00 | 0.00 | 0.00 | 93 | 1034.0 |
| 20260504140636 | 44 | 253 | 1.0 | 4.0 | 0.00 | 0.00 | 0.00 | 93 | 1034.0 |
| 20260504140142 | 44 | 251 | 2.0 | 4.0 | 0.00 | 0.00 | 0.00 | 93 | 1034.0 |
| 20260504130633 | 43 | 268 | 1.0 | 2.0 | 0.00 | 0.00 | 0.00 | 92 | 1034.4 |
| 20260504130131 | 43 | 267 | 0.0 | 2.0 | 0.00 | 0.00 | 0.00 | 92 | 1034.4 |
| 20260504110617 | 46 | 36 | 0.0 | 0.0 | 0.00 | 0.00 | 0.00 | 91 | 1034.5 |
| 20260504110112 | 46 | 36 | 0.0 | 0.0 | 0.00 | 0.00 | 0.00 | 91 | 1034.5 |
| 20260504100613 | 47 | 36 | 0.0 | 2.0 | 0.00 | 0.00 | 0.00 | 91 | 1034.2 |
| 20260504100112 | 47 | 36 | 0.0 | 2.0 | 0.00 | 0.00 | 0.00 | 91 | 1034.3 |
| 20260504090108 | 48 | 36 | 0.0 | 2.0 | 0.00 | 0.00 | 0.00 | 90 | 1034.3 |
| 20260504081603 | 49 | 36 | 0.0 | 1.0 | 0.00 | 0.00 | 0.00 | 89 | 1034.2 |
| 20260504081058 | 49 | 36 | 1.0 | 2.0 | 0.00 | 0.00 | 0.00 | 89 | 1034.2 |
| 20260504080550 | 49 | 36 | 1.0 | 2.0 | 0.00 | 0.00 | 0.00 | 89 | 1034.2 |
| 20260504050506 | 57 | 35 | 2.0 | 4.0 | 0.00 | 0.00 | 0.00 | 81 | 1033.1 |
| 20260504050004 | 57 | 61 | 2.0 | 4.0 | 0.00 | 0.00 | 0.00 | 80 | 1033.1 |
| 20260504045505 | 57 | 5 | 2.0 | 4.0 | 0.00 | 0.00 | 0.00 | 80 | 1033.1 |
| 20260504045007 | 58 | 26 | 2.0 | 4.0 | 0.00 | 0.00 | 0.00 | 80 | 1033.1 |
| 20260504044505 | 58 | 26 | 2.0 | 4.0 | 0.00 | 0.00 | 0.00 | 80 | 1033.0 |
| 20260504044003 | 58 | 0 | 2.0 | 4.0 | 0.00 | 0.00 | 0.00 | 80 | 1033.0 |
| 20260504043507 | 58 | 17 | 2.0 | 4.0 | 0.00 | 0.00 | 0.00 | 80 | 1033.1 |
| 20260504043006 | 58 | 44 | 3.0 | 6.0 | 0.00 | 0.00 | 0.00 | 81 | 1033.0 |
| 20260504042504 | 58 | 55 | 3.0 | 6.0 | 0.00 | 0.00 | 0.00 | 80 | 1033.0 |
| 20260504042004 | 58 | 49 | 3.0 | 6.0 | 0.00 | 0.00 | 0.00 | 80 | 1033.0 |
| 20260504041505 | 58 | 57 | 3.0 | 5.0 | 0.00 | 0.00 | 0.00 | 79 | 1033.1 |
| 20260504041003 | 58 | 56 | 4.0 | 6.0 | 0.00 | 0.00 | 0.00 | 79 | 1033.0 |
| 20260504040503 | 58 | 38 | 3.0 | 6.0 | 0.00 | 0.00 | 0.00 | 79 | 1033.0 |
| 20260504040003 | 59 | 53 | 3.0 | 5.0 | 0.00 | 0.00 | 0.00 | 77 | 1033.0 |